• In Österreich
  • Länderverzeichnis
  • Für 7 Tage
  • Wassertemperatur
  • Satellitenkarten
  • Wetterkarte
  • News
  • Widgets
  • user-avatar
    Anmelden

    Stündliche Wetter Masvingo

    Heute, 17 Dezember, Sonntag

    Zeit Temperatur Niederschläge Wind Luftdruck Luftfeuchtigkeit
    00:00 +22°C° 0 mm 1 m/S 672 mmHg 69%
    01:00 +21°C° 0 mm 1 m/S 672 mmHg 71%
    02:00 +21°C° 0 mm 1 m/S 672 mmHg 74%
    03:00 +20°C° 0 mm 1 m/S 672 mmHg 76%
    04:00 +20°C° 0 mm 1 m/S 672 mmHg 77%
    05:00 +18°C° 0 mm 0 m/S 671 mmHg 79%
    06:00 +20°C° 0 mm 0 m/S 672 mmHg 69%
    07:00 +23°C° 0 mm 0 m/S 673 mmHg 59%
    08:00 +28°C° 0 mm 1 m/S 674 mmHg 49%
    09:00 +30°C° 0 mm 1 m/S 674 mmHg 41%
    10:00 +31°C° 0 mm 1 m/S 674 mmHg 33%
    11:00 +34°C° 0 mm 2 m/S 674 mmHg 26%
    12:00 +35°C° 0 mm 2 m/S 673 mmHg 23%
    13:00 +35°C° 0 mm 2 m/S 672 mmHg 21%
    14:00 +36°C° 0 mm 3 m/S 672 mmHg 18%
    15:00 +35°C° 0 mm 3 m/S 671 mmHg 19%
    16:00 +35°C° 0 mm 3 m/S 671 mmHg 19%
    17:00 +34°C° 0 mm 4 m/S 670 mmHg 20%
    18:00 +31°C° 0 mm 3 m/S 670 mmHg 24%
    19:00 +29°C° 0 mm 3 m/S 670 mmHg 28%
    20:00 +27°C° 0 mm 2 m/S 670 mmHg 32%
    21:00 +26°C° 0 mm 2 m/S 671 mmHg 37%
    22:00 +25°C° 0 mm 2 m/S 671 mmHg 42%
    23:00 +24°C° 0 mm 2 m/S 671 mmHg 48%

    Morgen, 18 Dezember, Montag

    Zeit Temperatur Niederschläge Wind Luftdruck Luftfeuchtigkeit
    00:00 +24°C° 0 mm 2 m/S 671 mmHg 52%
    01:00 +23°C° 0 mm 2 m/S 671 mmHg 56%
    02:00 +23°C° 0 mm 1 m/S 670 mmHg 59%
    03:00 +22°C° 0 mm 1 m/S 670 mmHg 62%
    04:00 +22°C° 0 mm 1 m/S 670 mmHg 64%
    05:00 +22°C° 0 mm 1 m/S 670 mmHg 66%
    06:00 +24°C° 0 mm 1 m/S 671 mmHg 60%
    07:00 +26°C° 0 mm 1 m/S 671 mmHg 54%
    08:00 +28°C° 0 mm 2 m/S 672 mmHg 48%
    09:00 +31°C° 0 mm 1 m/S 672 mmHg 40%
    10:00 +34°C° 0 mm 1 m/S 673 mmHg 32%
    11:00 +35°C° 0 mm 0 m/S 673 mmHg 24%
    12:00 +35°C° 0 mm 0 m/S 672 mmHg 23%
    13:00 +39°C° 0 mm 1 m/S 672 mmHg 21%
    14:00 +39°C° 0 mm 1 m/S 671 mmHg 19%
    15:00 +37°C° 0 mm 1 m/S 670 mmHg 21%
    16:00 +36°C° 0 mm 2 m/S 670 mmHg 22%
    17:00 +35°C° 0 mm 3 m/S 669 mmHg 24%
    18:00 +33°C° 0 mm 3 m/S 669 mmHg 27%
    19:00 +31°C° 0 mm 3 m/S 669 mmHg 30%
    20:00 +29°C° 0 mm 2 m/S 669 mmHg 33%
    21:00 +29°C° 0 mm 3 m/S 669 mmHg 38%
    22:00 +28°C° 0 mm 3 m/S 670 mmHg 42%
    23:00 +27°C° 0 mm 3 m/S 670 mmHg 46%

    übermorgen, 19 Dezember, Dienstag

    Zeit Temperatur Niederschläge Wind Luftdruck Luftfeuchtigkeit
    00:00 +26°C° 0 mm 2 m/S 670 mmHg 49%
    01:00 +25°C° 0 mm 2 m/S 669 mmHg 53%
    02:00 +25°C° 0 mm 2 m/S 669 mmHg 56%
    03:00 +24°C° 0 mm 1 m/S 669 mmHg 58%
    04:00 +24°C° 0 mm 1 m/S 669 mmHg 59%
    05:00 +23°C° 0 mm 1 m/S 669 mmHg 61%
    06:00 +25°C° 0 mm 1 m/S 670 mmHg 55%
    07:00 +28°C° 0 mm 1 m/S 670 mmHg 49%
    08:00 +30°C° 0 mm 2 m/S 671 mmHg 44%
    09:00 +32°C° 0 mm 1 m/S 671 mmHg 38%
    10:00 +34°C° 0 mm 1 m/S 671 mmHg 32%
    11:00 +37°C° 0 mm 1 m/S 672 mmHg 26%
    12:00 +37°C° 0 mm 2 m/S 671 mmHg 25%
    13:00 +37°C° 0 mm 2 m/S 670 mmHg 25%
    14:00 +36°C° 0 mm 3 m/S 669 mmHg 24%
    15:00 +36°C° 0 mm 3 m/S 669 mmHg 25%
    16:00 +35°C° 0 mm 3 m/S 669 mmHg 26%
    17:00 +35°C° 0 mm 4 m/S 668 mmHg 27%
    18:00 +33°C° 0 mm 4 m/S 669 mmHg 33%
    19:00 +32°C° 0 mm 4 m/S 669 mmHg 38%
    20:00 +29°C° 0 mm 4 m/S 669 mmHg 44%
    21:00 +28°C° 0,1 mm 4 m/S 670 mmHg 52%
    22:00 +27°C° 0,1 mm 4 m/S 670 mmHg 60%
    23:00 +26°C° 0,1 mm 3 m/S 671 mmHg 68%

    20 Dezember, Mittwoch

    Zeit Temperatur Niederschläge Wind Luftdruck Luftfeuchtigkeit
    00:00 +25°C° 0,5 mm 3 m/S 670 mmHg 72%
    01:00 +25°C° 0,5 mm 2 m/S 670 mmHg 76%
    02:00 +24°C° 0,5 mm 2 m/S 670 mmHg 80%
    03:00 +23°C° 0,5 mm 2 m/S 670 mmHg 82%
    04:00 +23°C° 0,5 mm 2 m/S 670 mmHg 85%
    05:00 +21°C° 0,5 mm 2 m/S 670 mmHg 88%
    06:00 +22°C° 0,1 mm 3 m/S 671 mmHg 84%
    07:00 +24°C° 0,1 mm 3 m/S 672 mmHg 80%
    08:00 +25°C° 0,1 mm 4 m/S 672 mmHg 76%
    09:00 +26°C° 0,2 mm 4 m/S 672 mmHg 72%
    10:00 +27°C° 0,2 mm 4 m/S 672 mmHg 68%
    11:00 +28°C° 0,2 mm 4 m/S 672 mmHg 64%
    12:00 +28°C° 0,7 mm 4 m/S 672 mmHg 63%
    13:00 +28°C° 0,7 mm 5 m/S 671 mmHg 63%
    14:00 +28°C° 0,7 mm 5 m/S 671 mmHg 62%
    15:00 +27°C° 0,7 mm 5 m/S 671 mmHg 68%
    16:00 +26°C° 0,7 mm 5 m/S 670 mmHg 74%
    17:00 +23°C° 0,7 mm 4 m/S 670 mmHg 80%
    18:00 +23°C° 0,1 mm 4 m/S 671 mmHg 82%
    19:00 +22°C° 0,1 mm 4 m/S 671 mmHg 84%
    20:00 +22°C° 0,1 mm 4 m/S 672 mmHg 86%
    21:00 +22°C° 0 mm 4 m/S 672 mmHg 87%
    22:00 +22°C° 0 mm 4 m/S 672 mmHg 87%
    23:00 +21°C° 0 mm 4 m/S 672 mmHg 88%

    21 Dezember, Donnerstag

    Zeit Temperatur Niederschläge Wind Luftdruck Luftfeuchtigkeit
    00:00 +21°C° 0 mm 3 m/S 672 mmHg 89%
    01:00 +21°C° 0 mm 2 m/S 672 mmHg 90%
    02:00 +21°C° 0 mm 2 m/S 671 mmHg 91%
    03:00 +21°C° 0 mm 1 m/S 671 mmHg 91%
    04:00 +21°C° 0 mm 1 m/S 672 mmHg 92%
    05:00 +21°C° 0 mm 1 m/S 672 mmHg 92%
    06:00 +22°C° 0 mm 1 m/S 672 mmHg 86%
    07:00 +23°C° 0 mm 2 m/S 673 mmHg 81%
    08:00 +24°C° 0 mm 2 m/S 673 mmHg 76%
    09:00 +26°C° 0,2 mm 2 m/S 673 mmHg 68%
    10:00 +27°C° 0,2 mm 2 m/S 673 mmHg 61%
    11:00 +29°C° 0,2 mm 2 m/S 673 mmHg 54%
    12:00 +30°C° 0,3 mm 2 m/S 672 mmHg 52%
    13:00 +30°C° 0,3 mm 3 m/S 671 mmHg 50%
    14:00 +31°C° 0,3 mm 3 m/S 671 mmHg 48%
    15:00 +30°C° 0,3 mm 3 m/S 670 mmHg 50%
    16:00 +30°C° 0,3 mm 3 m/S 670 mmHg 52%
    17:00 +29°C° 0,3 mm 3 m/S 670 mmHg 54%
    18:00 +28°C° 0,5 mm 3 m/S 670 mmHg 59%
    19:00 +27°C° 0,5 mm 3 m/S 671 mmHg 65%
    20:00 +25°C° 0,5 mm 3 m/S 671 mmHg 71%
    21:00 +25°C° 0,3 mm 2 m/S 671 mmHg 75%
    22:00 +24°C° 0,3 mm 2 m/S 671 mmHg 78%
    23:00 +24°C° 0,3 mm 1 m/S 671 mmHg 81%

    22 Dezember, Freitag

    Zeit Temperatur Niederschläge Wind Luftdruck Luftfeuchtigkeit
    00:00 +23°C° 0 mm 1 m/S 670 mmHg 83%
    01:00 +23°C° 0 mm 1 m/S 670 mmHg 84%
    02:00 +23°C° 0 mm 1 m/S 669 mmHg 85%
    03:00 +23°C° 0,1 mm 1 m/S 670 mmHg 85%
    04:00 +22°C° 0,1 mm 1 m/S 670 mmHg 85%
    05:00 +22°C° 0,1 mm 1 m/S 670 mmHg 86%
    06:00 +24°C° 0 mm 2 m/S 670 mmHg 77%
    07:00 +26°C° 0 mm 2 m/S 671 mmHg 69%
    08:00 +28°C° 0 mm 3 m/S 672 mmHg 61%
    09:00 +29°C° 0,9 mm 3 m/S 671 mmHg 57%
    10:00 +30°C° 0,9 mm 3 m/S 671 mmHg 52%
    11:00 +33°C° 0,9 mm 3 m/S 671 mmHg 48%
    12:00 +33°C° 0,7 mm 3 m/S 670 mmHg 47%
    13:00 +32°C° 0,7 mm 2 m/S 670 mmHg 46%
    14:00 +32°C° 0,7 mm 2 m/S 669 mmHg 45%
    15:00 +31°C° 0,2 mm 2 m/S 669 mmHg 47%
    16:00 +31°C° 0,2 mm 2 m/S 669 mmHg 49%
    17:00 +30°C° 0,2 mm 2 m/S 669 mmHg 50%
    18:00 +29°C° 0 mm 2 m/S 669 mmHg 54%
    19:00 +28°C° 0 mm 2 m/S 669 mmHg 58%
    20:00 +27°C° 0 mm 1 m/S 669 mmHg 62%
    21:00 +27°C° 0 mm 1 m/S 669 mmHg 63%
    22:00 +26°C° 0 mm 1 m/S 668 mmHg 65%
    23:00 +26°C° 0 mm 1 m/S 668 mmHg 66%
    Mehr zeigen